TimeCEST,TemperatureF,Dew PointF,Humidity,Sea Level PressureIn,VisibilityMPH,Wind Direction,Wind SpeedMPH,Gust SpeedMPH,PrecipitationIn,Events,Conditions,WindDirDegrees,DateUTC
12:00 AM,42.8,41.0,93,29.83,6.2,ESE,2.3,-,N/A,Fog,Shallow Fog,110,2013-05-18 22:00:00
1:00 AM,44.6,42.8,93,29.83,6.2,Variable,1.2,-,N/A,Fog,Shallow Fog,0,2013-05-18 23:00:00
2:00 AM,44.6,42.8,93,29.83,6.2,Calm,Calm,-,N/A,Fog,Shallow Fog,0,2013-05-19 00:00:00
3:00 AM,44.6,42.8,93,29.83,6.2,Calm,Calm,-,N/A,Fog,Shallow Fog,0,2013-05-19 01:00:00
4:00 AM,44.6,42.8,93,29.80,6.2,Variable,1.2,-,N/A,Fog,Shallow Fog,0,2013-05-19 02:00:00
5:00 AM,42.8,41.0,93,29.80,6.2,East,2.3,-,N/A,Fog,Patches of Fog,90,2013-05-19 03:00:00
6:00 AM,46.4,44.6,93,29.77,6.2,Variable,1.2,-,N/A,Fog,Shallow Fog,0,2013-05-19 04:00:00
7:00 AM,51.8,48.2,88,29.80,-9999.0,Variable,2.3,-,N/A,,Clear,0,2013-05-19 05:00:00
8:00 AM,55.4,48.2,77,29.77,-9999.0,NNE,6.9,-,N/A,,Clear,30,2013-05-19 06:00:00
8:30 AM,55.4,48.2,77,29.77,-9999.0,NE,5.8,-,N/A,,Clear,40,2013-05-19 06:30:00
9:00 AM,59.0,50.0,72,29.77,-9999.0,ENE,4.6,-,N/A,,Clear,60,2013-05-19 07:00:00
9:30 AM,59.0,51.8,77,29.77,-9999.0,ENE,5.8,-,N/A,,Clear,60,2013-05-19 07:30:00
10:00 AM,60.8,51.8,72,29.74,-9999.0,NNE,10.4,-,N/A,,Clear,30,2013-05-19 08:00:00
10:30 AM,62.6,51.8,68,29.74,-9999.0,NE,9.2,-,N/A,,Clear,40,2013-05-19 08:30:00
11:00 AM,62.6,50.0,63,29.74,-9999.0,NE,11.5,-,N/A,,Clear,50,2013-05-19 09:00:00
11:30 AM,62.6,50.0,63,29.71,-9999.0,ENE,11.5,-,N/A,,Clear,70,2013-05-19 09:30:00
12:00 PM,64.4,50.0,59,29.74,-9999.0,ENE,10.4,-,N/A,,Clear,60,2013-05-19 10:00:00
12:30 PM,64.4,51.8,64,29.74,-9999.0,ENE,10.4,-,N/A,,Clear,70,2013-05-19 10:30:00
1:00 PM,64.4,51.8,64,29.74,-9999.0,ENE,13.8,-,N/A,,Clear,60,2013-05-19 11:00:00
1:30 PM,66.2,50.0,56,29.71,-9999.0,ENE,12.7,-,N/A,,Clear,70,2013-05-19 11:30:00
2:00 PM,66.2,50.0,56,29.74,-9999.0,ENE,13.8,-,N/A,,Clear,70,2013-05-19 12:00:00
2:30 PM,68.0,50.0,52,29.71,-9999.0,East,13.8,-,N/A,,Clear,80,2013-05-19 12:30:00
3:00 PM,68.0,51.8,56,29.71,-9999.0,East,13.8,-,N/A,,Clear,90,2013-05-19 13:00:00
3:30 PM,68.0,51.8,56,29.71,-9999.0,ESE,13.8,-,N/A,,Clear,110,2013-05-19 13:30:00
4:00 PM,68.0,50.0,52,29.71,6.2,East,11.5,-,N/A,,Partly Cloudy,80,2013-05-19 14:00:00
4:30 PM,68.0,51.8,56,29.71,6.2,East,12.7,-,N/A,,Partly Cloudy,80,2013-05-19 14:30:00
5:00 PM,68.0,50.0,52,29.71,6.2,East,13.8,-,N/A,,Partly Cloudy,90,2013-05-19 15:00:00
5:30 PM,68.0,48.2,49,29.68,6.2,East,15.0,-,N/A,,Partly Cloudy,80,2013-05-19 15:30:00
6:00 PM,68.0,50.0,52,29.68,6.2,East,11.5,-,N/A,,Partly Cloudy,90,2013-05-19 16:00:00
6:30 PM,66.2,50.0,56,29.68,6.2,East,10.4,-,N/A,,Partly Cloudy,80,2013-05-19 16:30:00
7:00 PM,64.4,50.0,59,29.68,6.2,East,9.2,-,N/A,,Partly Cloudy,80,2013-05-19 17:00:00
7:30 PM,64.4,51.8,64,29.68,6.2,ENE,9.2,-,N/A,Rain,Light Rain,70,2013-05-19 17:30:00
7:34 PM,64.4,51.8,64,29.68,6.2,ENE,6.9,-,N/A,Rain-Thunderstorm,Light Thunderstorms and Rain,70,2013-05-19 17:34:00
8:00 PM,53.6,51.8,94,29.71,5.0,SW,17.3,28.8,N/A,Rain-Thunderstorm,Thunderstorms and Rain,220,2013-05-19 18:00:00
8:30 PM,53.6,51.8,94,29.74,5.0,West,6.9,-,N/A,Rain-Thunderstorm,Thunderstorms and Rain,260,2013-05-19 18:30:00
9:00 PM,53.6,51.8,94,29.74,6.2,West,8.1,-,N/A,Rain,Rain,270,2013-05-19 19:00:00
9:39 PM,50.0,48.2,94,29.71,6.2,WNW,10.4,-,N/A,Rain-Thunderstorm,Thunderstorms and Rain,300,2013-05-19 19:39:00
10:00 PM,50.0,48.2,94,29.74,6.2,SSW,10.4,-,N/A,Rain,Light Rain,210,2013-05-19 20:00:00
10:10 PM,50.0,48.2,94,29.74,6.2,SW,8.1,-,N/A,,Mostly Cloudy,220,2013-05-19 20:10:00
11:00 PM,48.2,46.4,93,29.74,6.2,SW,8.1,-,N/A,,Mostly Cloudy,230,2013-05-19 21:00:00